PRIVATE WETTERSTATION BILLIGHEIM-ALLFELD                       ZURCK
Wetterdaten: Freitag, 24.01.2014
Datum Zeit Temp. A. Temp. A. min Temp. A. max Feuchte A. Luftdruck Regen Wind Richtung Richtung Sonnenschein ET Solar Taupunkt Windchill Windben Empfang
24.01.2014 00:00 2,4 C 2,4 C 2,4 C 88 % 1011,3 hPa 0,0 l/m 3,2 km/h (1 Bft) S-SO 157 0 min 0,000 mm 0 W/m 0,6 C 2,4 C 8,0 km/h (2 Bft) 98 %
24.01.2014 00:10 2,5 C 2,4 C 2,5 C 88 % 1011,1 hPa 0,0 l/m 3,2 km/h (1 Bft) S-SO 157 0 min 0,000 mm 0 W/m 0,7 C 2,5 C 9,7 km/h (2 Bft) 97 %
24.01.2014 00:20 2,5 C 2,5 C 2,6 C 88 % 1011,1 hPa 0,2 l/m 1,6 km/h (1 Bft) S 180 0 min 0,000 mm 0 W/m 0,7 C 2,5 C 8,0 km/h (2 Bft) 98 %
24.01.2014 00:30 2,5 C 2,5 C 2,6 C 88 % 1011,0 hPa 0,2 l/m 4,8 km/h (1 Bft) S-SO 157 0 min 0,000 mm 0 W/m 0,7 C 2,5 C 9,7 km/h (2 Bft) 97 %
24.01.2014 00:40 2,6 C 2,5 C 2,6 C 88 % 1010,9 hPa 0,0 l/m 3,2 km/h (1 Bft) S-SO 157 0 min 0,000 mm 0 W/m 0,8 C 2,6 C 11,3 km/h (2 Bft) 98 %
24.01.2014 00:50 2,6 C 2,6 C 2,6 C 88 % 1010,6 hPa 0,2 l/m 3,2 km/h (1 Bft) S 180 0 min 0,000 mm 0 W/m 0,8 C 2,6 C 11,3 km/h (2 Bft) 98 %
24.01.2014 01:00 2,6 C 2,6 C 2,6 C 88 % 1010,5 hPa 0,0 l/m 4,8 km/h (1 Bft) S-SO 157 0 min 0,000 mm 0 W/m 0,8 C 2,6 C 14,5 km/h (3 Bft) 97 %
24.01.2014 01:10 2,7 C 2,6 C 2,7 C 88 % 1010,3 hPa 0,2 l/m 4,8 km/h (1 Bft) S-SO 157 0 min 0,000 mm 0 W/m 0,9 C 2,7 C 11,3 km/h (2 Bft) 97 %
24.01.2014 01:20 2,6 C 2,6 C 2,7 C 88 % 1010,2 hPa 0,0 l/m 4,8 km/h (1 Bft) S 180 0 min 0,000 mm 0 W/m 0,8 C 2,6 C 9,7 km/h (2 Bft) 97 %
24.01.2014 01:30 2,6 C 2,6 C 2,7 C 88 % 1010,2 hPa 0,2 l/m 4,8 km/h (1 Bft) S 180 0 min 0,000 mm 0 W/m 0,8 C 2,6 C 9,7 km/h (2 Bft) 98 %
24.01.2014 01:40 2,6 C 2,6 C 2,6 C 88 % 1010,1 hPa 0,2 l/m 3,2 km/h (1 Bft) S 180 0 min 0,000 mm 0 W/m 0,8 C 2,6 C 9,7 km/h (2 Bft) 97 %
24.01.2014 01:50 2,6 C 2,6 C 2,6 C 88 % 1010,1 hPa 0,0 l/m 1,6 km/h (1 Bft) S 180 0 min 0,000 mm 0 W/m 0,8 C 2,6 C 8,0 km/h (2 Bft) 96 %
24.01.2014 02:00 2,6 C 2,6 C 2,6 C 88 % 1010,0 hPa 0,0 l/m 3,2 km/h (1 Bft) S 180 0 min 0,000 mm 0 W/m 0,8 C 2,6 C 8,0 km/h (2 Bft) 98 %
24.01.2014 02:10 2,6 C 2,6 C 2,6 C 88 % 1009,8 hPa 0,0 l/m 1,6 km/h (1 Bft) S-SO 157 0 min 0,000 mm 0 W/m 0,8 C 2,6 C 8,0 km/h (2 Bft) 97 %
24.01.2014 02:20 2,7 C 2,6 C 2,7 C 88 % 1009,8 hPa 0,2 l/m 3,2 km/h (1 Bft) S-SO 157 0 min 0,000 mm 0 W/m 0,9 C 2,7 C 8,0 km/h (2 Bft) 98 %
24.01.2014 02:30 2,7 C 2,7 C 2,7 C 88 % 1009,8 hPa 0,0 l/m 4,8 km/h (1 Bft) S-SO 157 0 min 0,000 mm 0 W/m 0,9 C 2,7 C 11,3 km/h (2 Bft) 97 %
24.01.2014 02:40 2,8 C 2,7 C 2,8 C 88 % 1009,9 hPa 0,0 l/m 3,2 km/h (1 Bft) S 180 0 min 0,000 mm 0 W/m 1,0 C 2,8 C 9,7 km/h (2 Bft) 98 %
24.01.2014 02:50 2,8 C 2,8 C 2,8 C 88 % 1009,9 hPa 0,0 l/m 6,4 km/h (2 Bft) S-SO 157 0 min 0,000 mm 0 W/m 1,0 C 2,8 C 12,9 km/h (3 Bft) 97 %
24.01.2014 03:00 2,8 C 2,8 C 2,8 C 88 % 1009,9 hPa 0,0 l/m 4,8 km/h (1 Bft) S-SO 157 0 min 0,000 mm 0 W/m 1,0 C 2,8 C 12,9 km/h (3 Bft) 97 %
24.01.2014 03:10 2,8 C 2,8 C 2,8 C 88 % 1009,9 hPa 0,0 l/m 4,8 km/h (1 Bft) S-SO 157 0 min 0,000 mm 0 W/m 1,0 C 2,8 C 11,3 km/h (2 Bft) 88 %
24.01.2014 03:20 2,8 C 2,8 C 2,8 C 88 % 1009,8 hPa 0,0 l/m 3,2 km/h (1 Bft) S 180 0 min 0,000 mm 0 W/m 1,0 C 2,8 C 11,3 km/h (2 Bft) 97 %
24.01.2014 03:30 2,8 C 2,8 C 2,8 C 88 % 1009,7 hPa 0,0 l/m 4,8 km/h (1 Bft) S-SW 202 0 min 0,000 mm 0 W/m 1,0 C 2,8 C 14,5 km/h (3 Bft) 98 %
24.01.2014 03:40 2,8 C 2,8 C 2,8 C 88 % 1009,7 hPa 0,0 l/m 3,2 km/h (1 Bft) S-SW 202 0 min 0,000 mm 0 W/m 1,0 C 2,8 C 11,3 km/h (2 Bft) 97 %
24.01.2014 03:50 2,8 C 2,8 C 2,8 C 88 % 1009,8 hPa 0,0 l/m 6,4 km/h (2 Bft) S-SW 202 0 min 0,000 mm 0 W/m 1,0 C 2,8 C 16,1 km/h (3 Bft) 98 %
24.01.2014 04:00 2,8 C 2,8 C 2,8 C 88 % 1009,9 hPa 0,2 l/m 8,0 km/h (2 Bft) S-SW 202 0 min 0,000 mm 0 W/m 1,0 C 1,3 C 17,7 km/h (3 Bft) 97 %
24.01.2014 04:10 2,8 C 2,8 C 2,8 C 88 % 1009,9 hPa 0,0 l/m 8,0 km/h (2 Bft) S-SW 202 0 min 0,000 mm 0 W/m 1,0 C 1,3 C 20,9 km/h (4 Bft) 98 %
24.01.2014 04:20 2,8 C 2,8 C 2,8 C 88 % 1010,1 hPa 0,0 l/m 9,7 km/h (2 Bft) S-SW 202 0 min 0,000 mm 0 W/m 1,0 C -0,1 C 17,7 km/h (3 Bft) 97 %
24.01.2014 04:30 2,8 C 2,8 C 2,8 C 88 % 1010,2 hPa 0,2 l/m 11,3 km/h (2 Bft) W-SW 247 0 min 0,000 mm 0 W/m 1,0 C -1,3 C 24,1 km/h (4 Bft) 97 %
24.01.2014 04:40 2,7 C 2,7 C 2,8 C 88 % 1010,3 hPa 0,0 l/m 6,4 km/h (2 Bft) W 270 0 min 0,000 mm 0 W/m 0,9 C 2,7 C 16,1 km/h (3 Bft) 98 %
24.01.2014 04:50 2,6 C 2,6 C 2,7 C 89 % 1010,5 hPa 0,0 l/m 8,0 km/h (2 Bft) W-NW 292 0 min 0,000 mm 0 W/m 1,0 C 1,1 C 20,9 km/h (4 Bft) 88 %
24.01.2014 05:00 2,6 C 2,6 C 2,6 C 89 % 1010,7 hPa 0,0 l/m 6,4 km/h (2 Bft) W-NW 292 0 min 0,000 mm 0 W/m 1,0 C 2,6 C 14,5 km/h (3 Bft) 98 %
24.01.2014 05:10 2,4 C 2,4 C 2,6 C 89 % 1010,9 hPa 0,0 l/m 8,0 km/h (2 Bft) W-NW 292 0 min 0,000 mm 0 W/m 0,8 C 0,9 C 22,5 km/h (4 Bft) 96 %
24.01.2014 05:20 2,4 C 2,4 C 2,5 C 89 % 1010,9 hPa 0,0 l/m 8,0 km/h (2 Bft) W-NW 292 0 min 0,000 mm 0 W/m 0,8 C 0,9 C 17,7 km/h (3 Bft) 98 %
24.01.2014 05:30 2,3 C 2,3 C 2,4 C 89 % 1010,9 hPa 0,0 l/m 6,4 km/h (2 Bft) W 270 0 min 0,000 mm 0 W/m 0,7 C 2,3 C 14,5 km/h (3 Bft) 98 %
24.01.2014 05:40 2,3 C 2,3 C 2,3 C 89 % 1011,0 hPa 0,0 l/m 8,0 km/h (2 Bft) W 270 0 min 0,000 mm 0 W/m 0,7 C 0,8 C 16,1 km/h (3 Bft) 97 %
24.01.2014 05:50 2,3 C 2,3 C 2,3 C 89 % 1011,1 hPa 0,0 l/m 4,8 km/h (1 Bft) W 270 0 min 0,000 mm 0 W/m 0,7 C 2,3 C 14,5 km/h (3 Bft) 98 %
24.01.2014 06:00 2,2 C 2,2 C 2,3 C 89 % 1011,1 hPa 0,0 l/m 6,4 km/h (2 Bft) W 270 0 min 0,000 mm 0 W/m 0,6 C 2,2 C 17,7 km/h (3 Bft) 97 %
24.01.2014 06:10 2,1 C 2,1 C 2,2 C 89 % 1011,2 hPa 0,0 l/m 8,0 km/h (2 Bft) W 270 0 min 0,000 mm 0 W/m 0,5 C 0,6 C 17,7 km/h (3 Bft) 98 %
24.01.2014 06:20 1,9 C 1,9 C 2,1 C 89 % 1011,3 hPa 0,0 l/m 12,9 km/h (3 Bft) W-SW 247 0 min 0,000 mm 0 W/m 0,3 C -3,4 C 24,1 km/h (4 Bft) 97 %
24.01.2014 06:30 1,9 C 1,9 C 2,0 C 89 % 1011,4 hPa 0,0 l/m 8,0 km/h (2 Bft) W 270 0 min 0,000 mm 0 W/m 0,3 C 0,3 C 19,3 km/h (3 Bft) 98 %
24.01.2014 06:40 1,9 C 1,9 C 1,9 C 89 % 1011,4 hPa 0,0 l/m 6,4 km/h (2 Bft) W 270 0 min 0,000 mm 0 W/m 0,3 C 1,9 C 19,3 km/h (3 Bft) 98 %
24.01.2014 06:50 1,9 C 1,9 C 1,9 C 89 % 1011,4 hPa 0,0 l/m 8,0 km/h (2 Bft) W-SW 247 0 min 0,000 mm 0 W/m 0,3 C 0,3 C 17,7 km/h (3 Bft) 97 %
24.01.2014 07:00 1,8 C 1,8 C 1,9 C 89 % 1011,6 hPa 0,2 l/m 8,0 km/h (2 Bft) SW 225 0 min 0,000 mm 0 W/m 0,2 C 0,2 C 16,1 km/h (3 Bft) 98 %
24.01.2014 07:10 1,7 C 1,7 C 1,8 C 89 % 1011,8 hPa 0,0 l/m 8,0 km/h (2 Bft) W 270 0 min 0,000 mm 0 W/m 0,1 C 0,1 C 19,3 km/h (3 Bft) 97 %
24.01.2014 07:20 1,7 C 1,7 C 1,7 C 89 % 1012,0 hPa 0,0 l/m 6,4 km/h (2 Bft) W 270 0 min 0,000 mm 0 W/m 0,1 C 1,7 C 14,5 km/h (3 Bft) 98 %
24.01.2014 07:30 1,6 C 1,6 C 1,7 C 89 % 1012,1 hPa 0,2 l/m 11,3 km/h (2 Bft) W 270 0 min 0,000 mm 0 W/m -0,0 C -2,7 C 24,1 km/h (4 Bft) 97 %
24.01.2014 07:40 1,6 C 1,6 C 1,6 C 89 % 1012,2 hPa 0,0 l/m 8,0 km/h (2 Bft) W 270 0 min 0,000 mm 0 W/m -0,0 C 0,0 C 22,5 km/h (4 Bft) 97 %
24.01.2014 07:50 1,6 C 1,6 C 1,6 C 89 % 1012,3 hPa 0,0 l/m 8,0 km/h (2 Bft) W 270 0 min 0,000 mm 0 W/m -0,0 C 0,0 C 19,3 km/h (3 Bft) 98 %
24.01.2014 08:00 1,5 C 1,5 C 1,6 C 89 % 1012,5 hPa 0,2 l/m 8,0 km/h (2 Bft) W 270 0 min 0,000 mm 0 W/m -0,1 C -0,1 C 22,5 km/h (4 Bft) 98 %
24.01.2014 08:10 1,5 C 1,5 C 1,6 C 89 % 1012,7 hPa 0,0 l/m 8,0 km/h (2 Bft) W 270 0 min 0,000 mm 0 W/m -0,1 C -0,1 C 19,3 km/h (3 Bft) 98 %
24.01.2014 08:20 1,5 C 1,5 C 1,6 C 89 % 1012,8 hPa 0,0 l/m 8,0 km/h (2 Bft) W 270 0 min 0,000 mm 0 W/m -0,1 C -0,1 C 16,1 km/h (3 Bft) 99 %
24.01.2014 08:30 1,6 C 1,5 C 1,6 C 89 % 1012,9 hPa 0,0 l/m 6,4 km/h (2 Bft) W 270 0 min 0,000 mm 0 W/m -0,0 C 1,6 C 22,5 km/h (4 Bft) 100 %
24.01.2014 08:40 1,6 C 1,6 C 1,6 C 89 % 1013,1 hPa 0,0 l/m 6,4 km/h (2 Bft) W 270 0 min 0,000 mm 0 W/m -0,0 C 1,6 C 14,5 km/h (3 Bft) 100 %
24.01.2014 08:50 1,7 C 1,6 C 1,7 C 89 % 1013,3 hPa 0,0 l/m 8,0 km/h (2 Bft) W 270 0 min 0,000 mm 7 W/m 0,1 C 0,1 C 20,9 km/h (4 Bft) 100 %
24.01.2014 09:00 1,7 C 1,7 C 1,7 C 89 % 1013,3 hPa 0,0 l/m 8,0 km/h (2 Bft) W 270 0 min 0,000 mm 11 W/m 0,1 C 0,1 C 19,3 km/h (3 Bft) 100 %
24.01.2014 09:10 1,7 C 1,7 C 1,7 C 89 % 1013,5 hPa 0,0 l/m 9,7 km/h (2 Bft) W 270 0 min 0,000 mm 12 W/m 0,1 C -1,3 C 24,1 km/h (4 Bft) 100 %
24.01.2014 09:20 1,7 C 1,6 C 1,7 C 89 % 1013,5 hPa 0,0 l/m 9,7 km/h (2 Bft) W-NW 292 0 min 0,000 mm 21 W/m 0,1 C -1,3 C 19,3 km/h (3 Bft) 100 %
24.01.2014 09:30 1,7 C 1,6 C 1,7 C 89 % 1013,6 hPa 0,0 l/m 8,0 km/h (2 Bft) W 270 0 min 0,000 mm 25 W/m 0,1 C 0,1 C 20,9 km/h (4 Bft) 99 %
24.01.2014 09:40 1,6 C 1,6 C 1,7 C 89 % 1013,6 hPa 0,0 l/m 8,0 km/h (2 Bft) W-NW 292 0 min 0,000 mm 25 W/m -0,0 C 0,0 C 20,9 km/h (4 Bft) 99 %
24.01.2014 09:50 1,4 C 1,4 C 1,6 C 89 % 1013,8 hPa 0,2 l/m 8,0 km/h (2 Bft) W 270 0 min 0,000 mm 32 W/m -0,2 C -0,2 C 19,3 km/h (3 Bft) 89 %
24.01.2014 10:00 1,3 C 1,3 C 1,4 C 89 % 1013,9 hPa 0,0 l/m 8,0 km/h (2 Bft) W 270 0 min 0,025 mm 40 W/m -0,3 C -0,3 C 24,1 km/h (4 Bft) 100 %
24.01.2014 10:10 1,1 C 1,1 C 1,3 C 89 % 1014,1 hPa 0,0 l/m 11,3 km/h (2 Bft) W 270 0 min 0,000 mm 33 W/m -0,5 C -3,2 C 20,9 km/h (4 Bft) 100 %
24.01.2014 10:20 1,1 C 1,1 C 1,1 C 89 % 1014,2 hPa 0,2 l/m 6,4 km/h (2 Bft) W 270 0 min 0,000 mm 30 W/m -0,5 C 1,1 C 16,1 km/h (3 Bft) 100 %
24.01.2014 10:30 1,1 C 1,1 C 1,1 C 89 % 1014,3 hPa 0,0 l/m 6,4 km/h (2 Bft) W 270 0 min 0,000 mm 46 W/m -0,5 C 1,1 C 16,1 km/h (3 Bft) 100 %
24.01.2014 10:40 1,2 C 1,1 C 1,2 C 89 % 1014,4 hPa 0,0 l/m 6,4 km/h (2 Bft) W 270 0 min 0,000 mm 44 W/m -0,4 C 1,2 C 19,3 km/h (3 Bft) 100 %
24.01.2014 10:50 1,2 C 1,2 C 1,2 C 89 % 1014,4 hPa 0,0 l/m 4,8 km/h (1 Bft) W 270 0 min 0,000 mm 39 W/m -0,4 C 1,2 C 16,1 km/h (3 Bft) 99 %
24.01.2014 11:00 1,3 C 1,2 C 1,3 C 89 % 1014,6 hPa 0,0 l/m 6,4 km/h (2 Bft) W 270 0 min 0,025 mm 44 W/m -0,3 C 1,3 C 16,1 km/h (3 Bft) 100 %
24.01.2014 11:10 1,4 C 1,3 C 1,4 C 89 % 1014,6 hPa 0,0 l/m 6,4 km/h (2 Bft) W-NW 292 0 min 0,000 mm 65 W/m -0,2 C 1,4 C 16,1 km/h (3 Bft) 100 %
24.01.2014 11:20 1,4 C 1,4 C 1,4 C 89 % 1014,6 hPa 0,0 l/m 4,8 km/h (1 Bft) W 270 0 min 0,000 mm 60 W/m -0,2 C 1,4 C 22,5 km/h (4 Bft) 100 %
24.01.2014 11:30 1,5 C 1,4 C 1,5 C 89 % 1014,6 hPa 0,0 l/m 4,8 km/h (1 Bft) W-NW 292 0 min 0,000 mm 49 W/m -0,1 C 1,5 C 16,1 km/h (3 Bft) 100 %
24.01.2014 11:40 1,5 C 1,4 C 1,6 C 89 % 1014,7 hPa 0,0 l/m 4,8 km/h (1 Bft) W-SW 247 0 min 0,000 mm 42 W/m -0,1 C 1,5 C 14,5 km/h (3 Bft) 100 %
24.01.2014 11:50 1,6 C 1,5 C 1,6 C 89 % 1014,8 hPa 0,0 l/m 4,8 km/h (1 Bft) W-NW 292 0 min 0,000 mm 32 W/m -0,0 C 1,6 C 16,1 km/h (3 Bft) 100 %
24.01.2014 12:00 1,6 C 1,6 C 1,6 C 89 % 1014,7 hPa 0,0 l/m 4,8 km/h (1 Bft) W 270 0 min 0,025 mm 37 W/m -0,0 C 1,6 C 14,5 km/h (3 Bft) 100 %
24.01.2014 12:10 1,6 C 1,6 C 1,6 C 89 % 1014,6 hPa 0,0 l/m 4,8 km/h (1 Bft) W-NW 292 0 min 0,000 mm 58 W/m -0,0 C 1,6 C 11,3 km/h (2 Bft) 99 %
24.01.2014 12:20 1,7 C 1,6 C 1,7 C 89 % 1014,7 hPa 0,0 l/m 6,4 km/h (2 Bft) W-NW 292 0 min 0,000 mm 74 W/m 0,1 C 1,7 C 24,1 km/h (4 Bft) 100 %
24.01.2014 12:30 1,8 C 1,7 C 1,8 C 89 % 1014,7 hPa 0,0 l/m 6,4 km/h (2 Bft) W-NW 292 0 min 0,000 mm 90 W/m 0,2 C 1,8 C 16,1 km/h (3 Bft) 100 %
24.01.2014 12:40 1,9 C 1,8 C 1,9 C 89 % 1014,8 hPa 0,0 l/m 4,8 km/h (1 Bft) NW 315 0 min 0,000 mm 65 W/m 0,3 C 1,9 C 17,7 km/h (3 Bft) 100 %
24.01.2014 12:50 1,9 C 1,9 C 1,9 C 89 % 1014,7 hPa 0,0 l/m 6,4 km/h (2 Bft) NW 315 0 min 0,000 mm 76 W/m 0,3 C 1,9 C 12,9 km/h (3 Bft) 100 %
24.01.2014 13:00 2,0 C 1,9 C 2,0 C 89 % 1014,7 hPa 0,0 l/m 6,4 km/h (2 Bft) W-NW 292 0 min 0,025 mm 69 W/m 0,4 C 2,0 C 19,3 km/h (3 Bft) 91 %
24.01.2014 13:10 2,0 C 2,0 C 2,1 C 89 % 1014,7 hPa 0,0 l/m 4,8 km/h (1 Bft) W 270 0 min 0,000 mm 56 W/m 0,4 C 2,0 C 16,1 km/h (3 Bft) 100 %
24.01.2014 13:20 2,0 C 2,0 C 2,0 C 89 % 1014,8 hPa 0,0 l/m 6,4 km/h (2 Bft) W-NW 292 0 min 0,000 mm 37 W/m 0,4 C 2,0 C 17,7 km/h (3 Bft) 99 %
24.01.2014 13:30 2,0 C 1,9 C 2,0 C 89 % 1014,8 hPa 0,0 l/m 4,8 km/h (1 Bft) W-NW 292 0 min 0,000 mm 33 W/m 0,4 C 2,0 C 12,9 km/h (3 Bft) 100 %
24.01.2014 13:40 2,0 C 1,9 C 2,0 C 89 % 1014,8 hPa 0,0 l/m 4,8 km/h (1 Bft) W-NW 292 0 min 0,000 mm 30 W/m 0,4 C 2,0 C 16,1 km/h (3 Bft) 100 %
24.01.2014 13:50 2,0 C 1,9 C 2,0 C 89 % 1014,7 hPa 0,0 l/m 6,4 km/h (2 Bft) W-NW 292 0 min 0,000 mm 30 W/m 0,4 C 2,0 C 17,7 km/h (3 Bft) 100 %
24.01.2014 14:00 1,9 C 1,9 C 2,0 C 89 % 1014,7 hPa 0,0 l/m 6,4 km/h (2 Bft) W-NW 292 0 min 0,025 mm 25 W/m 0,3 C 1,9 C 17,7 km/h (3 Bft) 100 %
24.01.2014 14:10 1,9 C 1,9 C 2,0 C 89 % 1014,8 hPa 0,0 l/m 8,0 km/h (2 Bft) W-NW 292 0 min 0,000 mm 23 W/m 0,3 C 0,3 C 16,1 km/h (3 Bft) 100 %
24.01.2014 14:20 1,9 C 1,9 C 2,0 C 89 % 1014,8 hPa 0,0 l/m 8,0 km/h (2 Bft) W-NW 292 0 min 0,000 mm 23 W/m 0,3 C 0,3 C 17,7 km/h (3 Bft) 100 %
24.01.2014 14:30 2,0 C 1,9 C 2,0 C 89 % 1014,9 hPa 0,0 l/m 6,4 km/h (2 Bft) W-NW 292 0 min 0,000 mm 33 W/m 0,4 C 2,0 C 14,5 km/h (3 Bft) 100 %
24.01.2014 14:40 2,1 C 2,0 C 2,1 C 89 % 1014,9 hPa 0,0 l/m 3,2 km/h (1 Bft) W-NW 292 0 min 0,000 mm 35 W/m 0,5 C 2,1 C 9,7 km/h (2 Bft) 91 %
24.01.2014 14:50 2,1 C 2,1 C 2,1 C 89 % 1014,9 hPa 0,0 l/m 4,8 km/h (1 Bft) W-NW 292 0 min 0,000 mm 33 W/m 0,5 C 2,1 C 11,3 km/h (2 Bft) 100 %
24.01.2014 15:00 2,1 C 2,1 C 2,1 C 89 % 1015,0 hPa 0,0 l/m 1,6 km/h (1 Bft) W-NW 292 0 min 0,025 mm 25 W/m 0,5 C 2,1 C 6,4 km/h (2 Bft) 100 %
24.01.2014 15:10 2,2 C 2,1 C 2,2 C 89 % 1015,1 hPa 0,0 l/m 1,6 km/h (1 Bft) W-NW 292 0 min 0,000 mm 23 W/m 0,6 C 2,2 C 9,7 km/h (2 Bft) 100 %
24.01.2014 15:20 2,2 C 2,1 C 2,2 C 89 % 1015,2 hPa 0,0 l/m 1,6 km/h (1 Bft) NW 315 0 min 0,000 mm 14 W/m 0,6 C 2,2 C 8,0 km/h (2 Bft) 100 %
24.01.2014 15:30 2,2 C 2,1 C 2,2 C 89 % 1015,2 hPa 0,0 l/m 1,6 km/h (1 Bft) W-NW 292 0 min 0,000 mm 14 W/m 0,6 C 2,2 C 6,4 km/h (2 Bft) 100 %
24.01.2014 15:40 2,2 C 2,2 C 2,2 C 89 % 1015,3 hPa 0,0 l/m 0,0 km/h (0 Bft) W-NW 292 0 min 0,000 mm 12 W/m 0,6 C 2,2 C 6,4 km/h (2 Bft) 99 %
24.01.2014 15:50 2,2 C 2,2 C 2,2 C 89 % 1015,4 hPa 0,0 l/m 0,8 km/h (0 Bft) W-NW 288 0 min 0,002 mm 7 W/m 0,6 C 2,2 C 4,8 km/h (1 Bft) 97 %
24.01.2014 16:00 2,2 C 2,1 C 2,2 C 89 % 1015,5 hPa 0,0 l/m 0,6 km/h (0 Bft) W-NW 303 0 min 0,000 mm 5 W/m 0,6 C 2,2 C 6,4 km/h (2 Bft) 99 %
24.01.2014 16:10 2,1 C 2,1 C 2,2 C 89 % 1015,6 hPa 0,0 l/m 1,1 km/h (1 Bft) NW 311 0 min 0,000 mm 5 W/m 0,5 C 2,1 C 6,4 km/h (2 Bft) 99 %
24.01.2014 16:20 2,1 C 2,1 C 2,2 C 89 % 1015,7 hPa 0,0 l/m 1,8 km/h (1 Bft) W-NW 291 0 min 0,000 mm 0 W/m 0,5 C 2,1 C 8,0 km/h (2 Bft) 99 %
24.01.2014 16:30 2,1 C 2,1 C 2,2 C 89 % 1015,8 hPa 0,0 l/m 0,3 km/h (0 Bft) W-NW 294 0 min 0,000 mm 5 W/m 0,5 C 2,1 C 3,2 km/h (1 Bft) 100 %
24.01.2014 16:40 2,1 C 2,1 C 2,1 C 89 % 1015,9 hPa 0,0 l/m 1,4 km/h (1 Bft) NW 305 0 min 0,000 mm 5 W/m 0,5 C 2,1 C 6,4 km/h (2 Bft) 100 %
24.01.2014 16:50 2,1 C 2,1 C 2,2 C 89 % 1016,0 hPa 0,0 l/m 1,5 km/h (1 Bft) NW 309 0 min 0,000 mm 0 W/m 0,5 C 2,1 C 4,8 km/h (1 Bft) 100 %
24.01.2014 17:00 2,1 C 2,1 C 2,1 C 89 % 1016,0 hPa 0,0 l/m 2,4 km/h (1 Bft) W-NW 296 0 min 0,000 mm 0 W/m 0,5 C 2,1 C 8,0 km/h (2 Bft) 91 %
24.01.2014 17:10 2,1 C 2,1 C 2,1 C 89 % 1016,2 hPa 0,0 l/m 0,7 km/h (0 Bft) NW 311 0 min 0,000 mm 0 W/m 0,5 C 2,1 C 6,4 km/h (2 Bft) 100 %
24.01.2014 17:20 2,1 C 2,1 C 2,1 C 89 % 1016,2 hPa 0,0 l/m 0,3 km/h (0 Bft) W-NW 298 0 min 0,000 mm 0 W/m 0,5 C 2,1 C 4,8 km/h (1 Bft) 100 %
24.01.2014 17:30 2,1 C 2,1 C 2,2 C 89 % 1016,4 hPa 0,0 l/m 0,7 km/h (0 Bft) NW 309 0 min 0,000 mm 0 W/m 0,5 C 2,1 C 6,4 km/h (2 Bft) 100 %
24.01.2014 17:40 2,2 C 2,1 C 2,2 C 89 % 1016,5 hPa 0,0 l/m 0,2 km/h (0 Bft) NW 309 0 min 0,000 mm 0 W/m 0,6 C 2,2 C 4,8 km/h (1 Bft) 100 %
24.01.2014 17:50 2,2 C 2,1 C 2,2 C 89 % 1016,6 hPa 0,0 l/m 0,7 km/h (0 Bft) NW 306 0 min 0,000 mm 0 W/m 0,6 C 2,2 C 4,8 km/h (1 Bft) 100 %
24.01.2014 18:00 2,2 C 2,2 C 2,2 C 89 % 1016,9 hPa 0,0 l/m 1,3 km/h (1 Bft) W-NW 303 0 min 0,000 mm 0 W/m 0,6 C 2,2 C 6,4 km/h (2 Bft) 100 %
24.01.2014 18:10 2,2 C 2,2 C 2,2 C 89 % 1016,9 hPa 0,0 l/m 0,2 km/h (0 Bft) NW 304 0 min 0,000 mm 0 W/m 0,6 C 2,2 C 3,2 km/h (1 Bft) 100 %
24.01.2014 18:20 2,2 C 2,2 C 2,2 C 89 % 1016,9 hPa 0,0 l/m 0,4 km/h (0 Bft) NW 304 0 min 0,000 mm 0 W/m 0,6 C 2,2 C 4,8 km/h (1 Bft) 100 %
24.01.2014 18:30 2,2 C 2,2 C 2,2 C 89 % 1017,0 hPa 0,0 l/m 0,9 km/h (0 Bft) NW 304 0 min 0,000 mm 0 W/m 0,6 C 2,2 C 4,8 km/h (1 Bft) 100 %
24.01.2014 18:40 2,2 C 2,2 C 2,2 C 89 % 1017,0 hPa 0,0 l/m 0,1 km/h (0 Bft) NW 304 0 min 0,000 mm 0 W/m 0,6 C 2,2 C 1,6 km/h (1 Bft) 100 %
24.01.2014 18:50 2,2 C 2,2 C 2,2 C 89 % 1017,1 hPa 0,0 l/m 0,6 km/h (0 Bft) NW 304 0 min 0,000 mm 0 W/m 0,6 C 2,2 C 4,8 km/h (1 Bft) 100 %
24.01.2014 19:00 2,2 C 2,2 C 2,2 C 89 % 1017,1 hPa 0,0 l/m 0,7 km/h (0 Bft) NW 325 0 min 0,000 mm 0 W/m 0,6 C 2,2 C 6,4 km/h (2 Bft) 99 %
24.01.2014 19:10 2,2 C 2,2 C 2,2 C 89 % 1017,1 hPa 0,0 l/m 0,0 km/h (0 Bft) NW 325 0 min 0,000 mm 0 W/m 0,6 C 2,2 C 1,6 km/h (1 Bft) 100 %
24.01.2014 19:20 2,2 C 2,2 C 2,2 C 89 % 1017,1 hPa 0,0 l/m 0,0 km/h (0 Bft) NW 325 0 min 0,000 mm 0 W/m 0,6 C 2,2 C 0,0 km/h (0 Bft) 100 %
24.01.2014 19:30 2,2 C 2,1 C 2,2 C 89 % 1017,1 hPa 0,0 l/m 0,0 km/h (0 Bft) NW 325 0 min 0,000 mm 0 W/m 0,6 C 2,2 C 0,0 km/h (0 Bft) 100 %
24.01.2014 19:40 2,1 C 2,1 C 2,2 C 89 % 1017,1 hPa 0,0 l/m 0,0 km/h (0 Bft) NW 325 0 min 0,000 mm 0 W/m 0,5 C 2,1 C 0,0 km/h (0 Bft) 100 %
24.01.2014 19:50 2,1 C 2,1 C 2,2 C 89 % 1017,1 hPa 0,0 l/m 0,0 km/h (0 Bft) NW 325 0 min 0,000 mm 0 W/m 0,5 C 2,1 C 0,0 km/h (0 Bft) 100 %
24.01.2014 20:00 2,1 C 2,1 C 2,1 C 89 % 1017,1 hPa 0,0 l/m 0,0 km/h (0 Bft) NW 325 0 min 0,000 mm 0 W/m 0,5 C 2,1 C 0,0 km/h (0 Bft) 100 %
24.01.2014 20:10 2,1 C 2,1 C 2,2 C 89 % 1017,2 hPa 0,0 l/m 0,0 km/h (0 Bft) NW 325 0 min 0,000 mm 0 W/m 0,5 C 2,1 C 0,0 km/h (0 Bft) 90 %
24.01.2014 20:20 2,2 C 2,1 C 2,2 C 89 % 1017,2 hPa 0,0 l/m 0,0 km/h (0 Bft) NW 325 0 min 0,000 mm 0 W/m 0,6 C 2,2 C 0,0 km/h (0 Bft) 100 %
24.01.2014 20:30 2,2 C 2,1 C 2,2 C 89 % 1017,4 hPa 0,0 l/m 0,0 km/h (0 Bft) NW 325 0 min 0,000 mm 0 W/m 0,6 C 2,2 C 0,0 km/h (0 Bft) 100 %
24.01.2014 20:40 2,2 C 2,1 C 2,2 C 89 % 1017,4 hPa 0,0 l/m 0,0 km/h (0 Bft) NW 325 0 min 0,000 mm 0 W/m 0,6 C 2,2 C 1,6 km/h (1 Bft) 100 %
24.01.2014 20:50 2,2 C 2,2 C 2,2 C 89 % 1017,4 hPa 0,0 l/m 0,0 km/h (0 Bft) NW 325 0 min 0,000 mm 0 W/m 0,6 C 2,2 C 0,0 km/h (0 Bft) 100 %
24.01.2014 21:00 2,2 C 2,2 C 2,2 C 89 % 1017,5 hPa 0,0 l/m 0,1 km/h (0 Bft) NW 325 0 min 0,000 mm 0 W/m 0,6 C 2,2 C 1,6 km/h (1 Bft) 100 %
24.01.2014 21:10 2,2 C 2,2 C 2,2 C 89 % 1017,6 hPa 0,0 l/m 0,0 km/h (0 Bft) NW 315 0 min 0,000 mm 0 W/m 0,6 C 2,2 C 3,2 km/h (1 Bft) 100 %
24.01.2014 21:20 2,2 C 2,2 C 2,2 C 89 % 1017,5 hPa 0,0 l/m 0,0 km/h (0 Bft) NW 315 0 min 0,000 mm 0 W/m 0,6 C 2,2 C 1,6 km/h (1 Bft) 100 %
24.01.2014 21:30 2,2 C 2,2 C 2,2 C 89 % 1017,7 hPa 0,0 l/m 0,0 km/h (0 Bft) N 0 0 min 0,000 mm 0 W/m 0,6 C 2,2 C 0,0 km/h (0 Bft) 100 %
24.01.2014 21:40 2,2 C 2,2 C 2,2 C 89 % 1017,7 hPa 0,0 l/m 0,0 km/h (0 Bft) N 0 0 min 0,000 mm 0 W/m 0,6 C 2,2 C 0,0 km/h (0 Bft) 100 %
24.01.2014 21:50 2,2 C 2,2 C 2,2 C 89 % 1017,7 hPa 0,0 l/m 0,0 km/h (0 Bft) NW 315 0 min 0,000 mm 0 W/m 0,6 C 2,2 C 3,2 km/h (1 Bft) 100 %
24.01.2014 22:00 2,2 C 2,2 C 2,2 C 89 % 1017,7 hPa 0,0 l/m 0,0 km/h (0 Bft) NW 315 0 min 0,000 mm 0 W/m 0,6 C 2,2 C 3,2 km/h (1 Bft) 100 %
24.01.2014 22:10 2,2 C 2,2 C 2,2 C 89 % 1017,7 hPa 0,0 l/m 0,0 km/h (0 Bft) N 0 0 min 0,000 mm 0 W/m 0,6 C 2,2 C 0,0 km/h (0 Bft) 100 %
24.01.2014 22:20 2,2 C 2,2 C 2,2 C 89 % 1017,8 hPa 0,0 l/m 0,0 km/h (0 Bft) NW 315 0 min 0,000 mm 0 W/m 0,6 C 2,2 C 3,2 km/h (1 Bft) 100 %
24.01.2014 22:30 2,2 C 2,2 C 2,2 C 89 % 1017,8 hPa 0,0 l/m 0,0 km/h (0 Bft) NW 315 0 min 0,000 mm 0 W/m 0,6 C 2,2 C 1,6 km/h (1 Bft) 100 %
24.01.2014 22:40 2,2 C 2,2 C 2,2 C 89 % 1017,7 hPa 0,0 l/m 0,0 km/h (0 Bft) NW 315 0 min 0,000 mm 0 W/m 0,6 C 2,2 C 3,2 km/h (1 Bft) 100 %
24.01.2014 22:50 2,2 C 2,2 C 2,2 C 89 % 1017,8 hPa 0,0 l/m 0,0 km/h (0 Bft) N 0 0 min 0,000 mm 0 W/m 0,6 C 2,2 C 0,0 km/h (0 Bft) 100 %
24.01.2014 23:00 2,2 C 2,2 C 2,2 C 89 % 1017,8 hPa 0,0 l/m 0,0 km/h (0 Bft) NW 315 0 min 0,000 mm 0 W/m 0,6 C 2,2 C 3,2 km/h (1 Bft) 90 %
24.01.2014 23:10 2,2 C 2,2 C 2,2 C 89 % 1017,8 hPa 0,0 l/m 0,0 km/h (0 Bft) NW 315 0 min 0,000 mm 0 W/m 0,6 C 2,2 C 3,2 km/h (1 Bft) 100 %
24.01.2014 23:20 2,2 C 2,2 C 2,2 C 89 % 1017,7 hPa 0,0 l/m 0,0 km/h (0 Bft) N 0 0 min 0,000 mm 0 W/m 0,6 C 2,2 C 0,0 km/h (0 Bft) 100 %
24.01.2014 23:30 2,2 C 2,2 C 2,2 C 89 % 1017,7 hPa 0,0 l/m 0,0 km/h (0 Bft) N 0 0 min 0,000 mm 0 W/m 0,6 C 2,2 C 0,0 km/h (0 Bft) 100 %
24.01.2014 23:40 2,2 C 2,2 C 2,2 C 89 % 1017,7 hPa 0,0 l/m 0,0 km/h (0 Bft) N 0 0 min 0,000 mm 0 W/m 0,6 C 2,2 C 0,0 km/h (0 Bft) 100 %
24.01.2014 23:50 2,2 C 2,2 C 2,2 C 89 % 1017,7 hPa 0,0 l/m 0,0 km/h (0 Bft) N 0 0 min 0,000 mm 0 W/m 0,6 C 2,2 C 0,0 km/h (0 Bft) 100 %
_ Min-Zeit 10:10 10:10 10:20 00:00 03:30 - 15:40 - - - - - 10:10 06:20 19:20 03:10
Minimum _ 1,1 C 1,1 C 1,1 C 88 % 1009,7 hPa - 0,0 km/h (0 Bft) - - - - - -0,5 C -3,4 C 0,0 km/h (0 Bft) 88 %
_ Max-Zeit 02:40 02:50 02:40 04:50 22:20 00:20 06:20 - - 00:00 10:00 12:30 02:40 02:50 04:30 08:50
Maximum _ 2,8 C 2,8 C 2,8 C 89 % 1017,8 hPa 0,2 l/m 12,9 km/h
W-SW (3 Bft)
- - 0 min 0,025 mm 90 W/m 1,0 C 2,8 C 24,1 km/h
W-SW (4 Bft)
100 %
Durchschnitt _ 2,1 C 2,1 C 2,1 C 89 % 1014,0 hPa #2,8 l/m 4,1 km/h (1 Bft) W - #0 min. #0,152 mm 34 W/m 0,5 C 1,7 C 11,2 km/h (2 Bft) 98 %
PRIVATE WETTERSTATION BILLIGHEIM-ALLFELD - www.neckar-odenwald-wetter.de - Holger Sonntag